Regional Weather Roundup
Issued by NWS

Home | Current Version | Previous Version | Graphics & Text | Print | Product List | Glossary On
Versions: 1 2 3 4 5 6 7 8 9 10 11 12 13 14 15 16 17 18 19 20 21 22 23 24 25 26 27 28 29 30 31 32 33 34 35 36 37 38 39 40 41 42 43 44 45 46 47 48 49 50
000
ASUS43 KMKX 271411
RWRWI

WISCONSIN REGIONAL WEATHER ROUNDUP
NATIONAL WEATHER SERVICE MILWAUKEE/SULLIVAN WI
900 AM CDT SAT MAY 27 2017

NOTE: "FAIR" INDICATES FEW OR NO CLOUDS BELOW 12,000 FEET WITH NO
SIGNIFICANT WEATHER AND/OR OBSTRUCTIONS TO VISIBILITY.

WIZ001-002-006>008-014>016-023>028-271500-
NORTHWEST WISCONSIN

CITY           SKY/WX    TMP DP  RH WIND       PRES   REMARKS
SUPERIOR ARPT  NOT AVBL
ASHLAND        MOSUNNY   64  52  64 W7        29.84S
HAYWARD        SUNNY     61  52  72 CALM      29.87R
SIREN          MOSUNNY   61  49  65 NW6       29.88S
CUMBERLAND     MOSUNNY   61  45  55 NW6       29.89R
RICE LAKE      MOSUNNY   61  51  70 W5        29.90R
CHETEK         MOSUNNY   62  52  71 N7        29.88R
LADYSMITH      SUNNY     60  58  94 W6        29.89R
EAU CLAIRE     SUNNY     64  52  64 W6        29.87R
MENOMONIE      SUNNY     63  51  65 W6        29.88R
NEW RICHMOND   SUNNY     63  48  58 NW5       29.89S
OSCEOLA        SUNNY     62  51  66 NW3       29.91S
$$

WIZ003>005-009-010-017-018-271500-
NORTH CENTRAL WISCONSIN

CITY           SKY/WX    TMP DP  RH WIND       PRES   REMARKS
MANITOWISH WTR PTSUNNY   60  58  93 SW6       29.85R
ARBOR VITAE    MOSUNNY   62  57  84 SW5       29.85S
WOODRUFF       MOSUNNY   62  57  84 SW5       29.85S
RHINELANDER    CLOUDY    60  56  86 W3        29.86S
EAGLE RIVER    PTSUNNY   60  57  90 W3        29.85S
LAND O LAKES   MOSUNNY   62  55  80 SW5       29.87R
PHILLIPS       CLOUDY    57  56  95 CALM      29.86R
TOMAHAWK       CLOUDY    59  56  89 CALM      29.87R
MEDFORD        PTSUNNY   59  55  87 S3        29.86S
MERRILL        CLOUDY    59  57  95 SW3       29.87R
$$

WIZ029-030-035-036-043>047-271500-
CENTRAL WISCONSIN

CITY           SKY/WX    TMP DP  RH WIND       PRES   REMARKS
WAUSAU         SUNNY     63  57  81 SW3       29.85S
MOSINEE        MOSUNNY   63  59  88 SW5       29.88S
MARSHFIELD     PTSUNNY   59  56  89 VRB3      29.86S
STEVENS POINT  SUNNY     62  56  82 CALM      29.88R
WAUPACA        SUNNY     66  58  75 S5        29.88S
WAUTOMA        MOSUNNY   64  58  80 SW7       29.89F
WISC RAPIDS    SUNNY     65  58  78 W3        29.88S
CAMP DOUGLAS   SUNNY     66  59  77 CALM      29.88R
$$

WIZ011>013-019>022-031-037>040-048>050-271500-
NORTHEAST WISCONSIN

CITY           SKY/WX    TMP DP  RH WIND       PRES   REMARKS
ANTIGO         CLOUDY    60  57  91 SW5       29.87S
SHAWANO        SUNNY     67  58  73 SW3       29.87F
OCONTO         SUNNY     66  56  69 SW3       29.87F
STURGEON BAY   NOT AVBL
GREEN BAY      SUNNY     64  58  80 SW7       29.89S
MANITOWOC      SUNNY     61  53  75 E7        29.90F
APPLETON       MOSUNNY   63  52  67 SW7       29.88S
CLINTONVILLE   SUNNY     64  55  72 S6        29.87F
OSHKOSH        SUNNY     64  55  72 VRB3      29.89S
$$

WIZ032>034-041-042-053>061-271500-
SOUTHWEST WISCONSIN

CITY           SKY/WX    TMP DP  RH WIND       PRES   REMARKS
LA CROSSE      SUNNY     64  59  83 S9        29.88R
SPARTA         SUNNY     63  58  85 W3        29.89R
VIROQUA        CLOUDY    58  58 100 MISG      29.90S VSB 1/4
BOSCOBEL       CLOUDY    60  57  89 CALM      29.90S FOG
PRAIRIE DU CHI CLOUDY    59  58  97 S5        29.90R FOG
PLATTEVILLE    CLOUDY    61  59  94 SW5       29.92R
$$

WIZ056-057-062-063-064-067-068-271500-
SOUTH CENTRAL WISCONSIN

CITY           SKY/WX    TMP DP  RH WIND       PRES   REMARKS
REEDSBURG      CLOUDY    59  59 100 SW6       29.89S
BARABOO/DELLS  CLOUDY    61  57  86 SW7       29.89S
LONE ROCK      CLOUDY    56  55  97 CALM      29.91S FOG
MINERAL POINT  CLOUDY    61  59  94 CALM      29.92R
MADISON        PTSUNNY   61  55  81 SE3       29.90S
MIDDLETON      SUNNY     64  57  77 CALM      29.91S
WATERTOWN      SUNNY     62  57  84 CALM      29.91S
MONROE         SUNNY     61  55  82 SE3       29.92R
JANESVILLE     PTSUNNY   63  55  77 CALM      29.91R
$$

WIZ051-052-058>065-066-070>072-271500-
SOUTHEAST WISCONSIN

CITY           SKY/WX    TMP DP  RH WIND       PRES   REMARKS
MILWAUKEE      MOSUNNY   64  55  72 SE5       29.91F
WAUKESHA       NOT AVBL
MILWAUKEE/TIMM SUNNY     63  52  67 CALM      29.92F
RACINE         SUNNY     62  53  72 E6        29.93F
KENOSHA        SUNNY     62  55  77 E8        29.92S
FOND DU LAC    SUNNY     64  53  67 SW6       29.90S
SHEBOYGAN      SUNNY     64  55  72 VRB3      29.90F
WEST BEND      SUNNY     63  55  77 CALM      29.91S
JUNEAU         SUNNY     61  55  80 S3        29.92F
$$

LSZ147-162-271500-
LAKE SUPERIOR

STATION/POSITION TIME  TEMP    WIND        PRES    WAVE
                       AIR SEA DIR/SP/G            HT/PER
                 (UTC) (F)     (DEG/KT/KT) (MB)    (FT/S)
W MID LAKE BUOY  1250   39 37  260/  8/  8 1009.8F   0
DEVILS ISLAND    1400   50     240/ 13/ 15 1010.5R
SAXON HARBOR     1340   60      60/  3/  5 1010.2R
$$

LMZ867-665-643>646-271500-
LAKE MICHIGAN

STATION/POSITION TIME  TEMP    WIND        PRES    WAVE
                       AIR SEA DIR/SP/G            HT/PER
                 (UTC) (F)     (DEG/KT/KT) (MB)    (FT/S)
CHAMBERS ISLAND  1340   61     190/  5/ 10 1011.5S
N MID LAKE BUOY  1350   45 42  190/  8/  8 1013.0F   0
NORTHPORT PIER   1330   50     140/  7/ 10 1011.5F
ALGOMA LAKESHORE 1316             CALM       N/A
KEWAUNEE LAKESHO 1348   51     170/  8/ 10 1011.9F
SHEBOYGAN LAKESH 1400   52     180/  4/  4 1012.7S
PORT WASHINGTON  1340   57     170/  3/  4 1013.9S
ATWATER BUOY     1309   48     140/  2/  4 1013.2F
MILWAUKEE LAKESH 1350   54     100/  3/  3   N/A
S MID LAKE BUOY  1250   49 46  350/  4/  4 1013.7R   0
KENOSHA   LAKESH 1400   55        CALM     1013.2
$$

TC  - TEMPERATURE IN CELSIUS
VSB - VISIBILITY IN STATUTE MILES
WCI - WIND CHILL INDEX
HX  - HEAT INDEX





USA.gov is the U.S. government's official web portal to all federal, state and local government web resources and services.